Location: Laterina
(43.5167°N, 11.7167°E)
Time: 23:03:53
(UTC+00:00)

Cosmos 1125 Rocket - Pass Details

Date: 23 June 2021
Orbit: 757 x 780 km, 74.0° (Epoch: 29 July)

Event Time Altitude Azimuth Distance (km) Brightness Sun altitude
Rises 00:56:30 0° 341° (NNW) 3,246 7.5 -19.1°
Reaches altitude 10° 00:58:54 10° 345° (NNW) 2,320 6.7 -19.0°
Maximum altitude 01:04:09 67° 68° (ENE) 839 3.8 -18.5°
Enters shadow 01:09:02 12° 150° (SSE) 2,184 5.5 -18.1°
